User: anonymous   Login
Location: Caltech
(34.1382°N, 118.1253°W)
Time: 17:57:59
(UTC-07:00)
Language:

BREEZE M DEB (TANK) - Orbit

View from above orbital plane
View from above orbital plane
View from above satellite
View from above satellite

Ground track
Ground track

The orbit data is extracted from the following two-line orbital elements,

1 33437U 08057B   16237.09229730  .00000541  00000-0  13026-3 0  9996
2 33437  49.5640 140.3836 4993559 219.6213  90.5464  5.59612599157218
Epoch (UTC): 24 August 2016 02:12:54
Eccentricity: 0.4993559
inclination: 49.5640°
perigee height: 331 km
apogee height: 13715 km
right ascension of ascending node: 140.3836°
argument of perigee: 219.6213°
revolutions per day: 5.59612599
mean anomaly at epoch: 90.5464°
orbit number at epoch: 15721

The dashed part of the orbit path shows where the satellite is in the earth's shadow,  

DLR